BEIDOU-3 IGSO-1 (C38)

Last updated on Oct. 29, 2020, 5:53 a.m. UTC

1 44204U 19023A   20302.75986932 -.00000209  00000-0  10000-3 0  9991
2 44204  55.6883  59.4518 0019677 181.9890 180.4764  1.00253467  5732
UTC
Height (km)
Latitude
Longitude
Inclination
Orbital Period
UTC large
Height (km)
Speed (km/s)
/
Latitude / Longitude
Inclination (degrees)
Orbital Period (minutes)
Azimuth
Elevation
Range (km)
Doppler Factor
iOS Compass Heading
iOS Angle

Next 30 passes for location: Hong Kong

Rise time Rise Azimuth (degrees) Set time Set Azimuth (degrees) Duration Max altitude (degrees)

No matching passes for this satellites